Location: Rumah Geringgi
(3.1667°N, 113.1667°E)
Time: 19:34:48
(UTC+00:00)

SL-08 RB Rocket - Pass Details

Date: 03 August 2024
Orbit: 637 x 675 km, 97.8° (Epoch: 19 September)

Event Time Altitude Azimuth Distance (km) Brightness Sun altitude
Rises 21:16:14 0° 8° (N) 3,003 7.4 -17.4°
Reaches altitude 10° 21:18:29 10° 6° (N) 2,087 6.6 -16.9°
Maximum altitude 21:23:01 72° 282° (WNW) 697 3.6 -15.8°
Drops below altitude 10° 21:27:32 10° 197° (SSW) 2,072 5.9 -14.7°
Enters shadow 21:28:17 - 196° (SSW) 2,378 6.2 -14.6°
